TimeMDT,TemperatureF,Dew PointF,Humidity,Sea Level PressureIn,VisibilityMPH,Wind Direction,Wind SpeedMPH,Gust SpeedMPH,PrecipitationIn,Events,Conditions,WindDirDegrees,DateUTC
12:53 AM,42.1,32.0,67,30.01,10.0,Calm,Calm,-,N/A,,Clear,0,2012-10-11 06:53:00
1:53 AM,51.1,35.1,54,30.00,10.0,East,12.7,-,N/A,,Clear,100,2012-10-11 07:53:00
2:53 AM,50.0,33.1,52,30.01,10.0,ESE,11.5,-,N/A,,Clear,120,2012-10-11 08:53:00
3:53 AM,46.9,32.0,56,30.02,10.0,SE,11.5,-,N/A,,Clear,130,2012-10-11 09:53:00
4:53 AM,46.9,32.0,56,30.04,10.0,East,8.1,-,N/A,,Clear,100,2012-10-11 10:53:00
5:53 AM,45.0,30.9,58,30.06,10.0,ESE,6.9,-,N/A,,Clear,120,2012-10-11 11:53:00
6:53 AM,43.0,30.9,62,30.08,10.0,ESE,11.5,17.3,N/A,,Clear,110,2012-10-11 12:53:00
7:53 AM,37.9,30.0,73,30.12,10.0,Calm,Calm,-,N/A,,Clear,0,2012-10-11 13:53:00
8:53 AM,39.9,32.0,73,30.14,10.0,Calm,Calm,-,N/A,,Clear,0,2012-10-11 14:53:00
9:53 AM,45.0,32.0,60,30.14,10.0,NW,3.5,-,N/A,,Clear,320,2012-10-11 15:53:00
10:32 AM,48.2,30.2,50,30.10,10.0,ESE,21.9,25.3,N/A,,Clear,120,2012-10-11 16:32:00
10:53 AM,50.0,30.9,48,30.12,10.0,ESE,19.6,-,N/A,,Clear,110,2012-10-11 16:53:00
11:53 AM,52.0,32.0,47,30.12,10.0,ESE,15.0,-,N/A,,Clear,110,2012-10-11 17:53:00
12:53 PM,55.9,32.0,40,30.09,10.0,ESE,10.4,-,N/A,,Clear,110,2012-10-11 18:53:00
1:53 PM,55.9,32.0,40,30.03,10.0,Calm,Calm,-,N/A,,Clear,0,2012-10-11 19:53:00
2:53 PM,60.1,33.1,36,30.00,10.0,Calm,Calm,-,N/A,,Clear,0,2012-10-11 20:53:00
3:53 PM,60.8,33.8,36,29.98,10.0,WSW,3.5,-,N/A,,Clear,250,2012-10-11 21:53:00
4:53 PM,60.8,33.8,36,29.96,10.0,West,3.5,-,N/A,,Clear,270,2012-10-11 22:53:00
5:53 PM,61.0,32.0,34,29.94,9.0,Calm,Calm,-,N/A,,Clear,0,2012-10-11 23:53:00
6:53 PM,55.0,34.0,45,29.94,8.0,Calm,Calm,-,N/A,,Clear,0,2012-10-12 00:53:00
7:53 PM,50.0,34.0,54,29.96,10.0,North,4.6,-,N/A,,Clear,350,2012-10-12 01:53:00
8:53 PM,46.0,34.0,63,29.96,10.0,WNW,5.8,-,N/A,,Clear,290,2012-10-12 02:53:00
9:53 PM,46.9,34.0,61,29.94,10.0,Calm,Calm,-,N/A,,Clear,0,2012-10-12 03:53:00
10:53 PM,44.1,33.1,65,29.95,10.0,ENE,4.6,-,N/A,,Clear,70,2012-10-12 04:53:00
11:53 PM,42.1,33.1,70,29.95,10.0,ESE,4.6,-,N/A,,Clear,110,2012-10-12 05:53:00